Flight Track Log - Related Links

Times and Time Zones

All times are in EDT time to prevent confusion due to time zone crossing. See the ASQ2593 flight status page for this flight to view local times or setup timezone preferences in your user account.

Time Position Orientation Groundspeed Altitude Reporting Facility
EDT Latitude Longitude Course Direction KTS MPH feet Rate Location/Type
Tue 04:32:18 PM 30.5497 -96.3294 133° Southeast 180 207 2,400  Level Houston Center
Tue 04:32:40 PM 30.5675 -96.3083 46° Northeast 227 261 3,100 1,742 Climbing Houston Center
Tue 04:33:20 PM 30.6086 -96.3083 360° North 262 302 4,200 1,548 Climbing Houston Center
Tue 04:33:42 PM 30.6367 -96.3064 North 250 288 4,700 1,906 Climbing Houston Center
Tue 04:34:45 PM 30.7200 -96.3078 359° North 288 331 6,900 2,064 Climbing Houston Center
Tue 04:35:47 PM 30.8078 -96.3083 360° North 308 354 9,000 2,081 Climbing Houston Center
Tue 04:36:49 PM 30.8975 -96.3075 360° North 316 364 11,200 1,694 Climbing Houston Center
Tue 04:37:51 PM 30.9889 -96.3094 359° North 331 381 12,500 1,210 Climbing Houston Center
Tue 04:38:53 PM 31.1083 -96.3103 360° North 359 413 13,700 774 Climbing Houston Center
Tue 04:39:55 PM 31.2164 -96.3119 359° North 380 437 14,100 144 Climbing Houston Center
Tue 04:40:58 PM 31.3356 -96.3122 360° North 414 476 14,000 -48 Descending Houston Center
Tue 04:42:00 PM 31.4558 -96.3053 North 425 489 14,000  Level Houston Center
Tue 04:43:02 PM 31.5717 -96.2942 North 418 481 14,000  Level Houston Center
Tue 04:43:37 PM 31.6533 -96.3225 344° North 417 480 14,000  Level Fort Worth Center
Tue 04:44:37 PM 31.7642 -96.3506 348° North 412 474 14,000  Level Fort Worth Center
Tue 04:45:37 PM 31.8750 -96.3711 351° North 406 467 14,000 50 Level Fort Worth Center
Tue 04:46:37 PM 31.9836 -96.3872 353° North 401 461 14,100  Climbing Fort Worth Center
Tue 04:47:37 PM 32.0944 -96.4081 351° North 396 456 14,000 -50 Descending Fort Worth Center
Tue 04:48:37 PM 32.2053 -96.4239 353° North 396 456 14,000 -650 Level Fort Worth Center
Tue 04:49:37 PM 32.3014 -96.4375 353° North 391 450 12,700 -1,350 Descending Fort Worth Center
Tue 04:50:37 PM 32.4042 -96.4783 341° North 380 437 11,300 -800 Descending Fort Worth Center
Tue 04:51:37 PM 32.4714 -96.5589 315° West 365 420 11,100 -150 Descending Fort Worth Center
Tue 04:52:37 PM 32.5578 -96.6617 315° West 393 452 11,000  Descending Fort Worth Center
Tue 04:53:37 PM 32.6292 -96.7450 315° West 399 459 11,100  Climbing Fort Worth Center
Tue 04:54:02 PM 32.6667 -96.7833 319° Northwest 400 460 11,000 -143 Descending Dallas / Fort Worth TRACON
Tue 04:55:01 PM 32.7333 -96.8667 314° West 316 364 10,900 -53 Descending Dallas / Fort Worth TRACON
Tue 04:55:56 PM 32.8000 -96.9000 337° Northwest 260 299 10,900 -991 Level Dallas / Fort Worth TRACON
Tue 04:56:56 PM 32.8833 -96.9000 360° North 256 295 9,000 -2,118 Descending Dallas / Fort Worth TRACON
Tue 04:57:55 PM 32.9500 -96.9000 360° North 256 295 6,700 -2,100 Descending Dallas / Fort Worth TRACON
Tue 04:58:56 PM 33.0167 -96.9000 360° North 247 284 4,800 -1,650 Descending Dallas / Fort Worth TRACON
Tue 04:59:55 PM 33.0667 -96.9500 320° Northwest 223 257 3,400 -1,053 Descending Dallas / Fort Worth TRACON
Tue 05:00:50 PM 33.0500 -97.0000 248° West 204 235 2,800 -632 Descending Dallas / Fort Worth TRACON
Tue 05:01:49 PM 33.0000 -97.0167 196° South 171 197 2,200 -720 Descending Dallas / Fort Worth TRACON
Tue 05:02:55 PM 32.9500 -97.0167 180° South 138 159 1,300 -714 Descending Dallas / Fort Worth TRACON
Tue 05:03:55 PM 32.9167 -97.0167 180° South 134 154 700 -600 Descending Dallas / Fort Worth TRACON

Login

Don't have an account? Register now (free) for customized features, flight alerts, and more!